Location: Castifao
(42.5040°N, 9.1124°E)
Time: 06:23:50
(UTC+00:00)

CSL-04 Rocket - Pass Details

Date: 23 January 2020
Orbit: 806 x 860 km, 99.0° (Epoch: 19 February)

Event Time Altitude Azimuth Distance (km) Brightness Sun altitude
Rises 17:19:40 0° 144° (SE) 3,390 6.6 -10.2°
Reaches altitude 10° 17:22:07 10° 138° (SE) 2,466 5.9 -10.7°
Maximum altitude 17:27:15 43° 68° (ENE) 1,184 4.0 -11.6°
Drops below altitude 10° 17:32:28 10° 359° (N) 2,503 6.0 -12.5°
Sets 17:34:57 0° 353° (N) 3,446 6.8 -12.9°
